Wind_Speed
15 17 18 19 20 21 22 23 25 27 29 30 32 32 33 35 35 37 38 37 38 38 38 38 39 39 40 39 38 38 37 35 34 33 32 32 31 32 31 31 30 30 28 26
15 17 18 18 20 21 23 23 24 27 29 31 32 33 35 36 38 39 39 39 39 38 38 38 39 40 41 41 42 42 41 39 37 35 34 34 34 33 33 32 32 32 29 27
14 15 16 18 19 20 21 22 23 25 27 30 33 35 36 37 39 39 39 40 40 39 38 38 39 40 40 40 41 42 42 41 40 38 37 36 35 35 34 33 33 33 31 29
12 14 16 17 17 18 20 21 22 24 27 29 32 34 34 36 37 38 39 40 39 38 36 36 37 38 39 40 41 41 42 41 40 40 39 38 36 35 35 35 35 33 32 32
10 13 14 15 17 18 19 21 22 24 26 27 28 30 32 33 34 35 36 36 36 37 36 35 34 34 35 36 37 38 38 39 39 40 39 38 37 36 36 36 36 35 34 33
9 12 14 15 17 18 19 20 21 21 21 22 24 26 28 29 29 30 31 31 31 32 33 32 30 31 32 32 33 34 35 36 37 38 38 38 38 37 36 36 36 35 34 34
8 12 14 16 17 17 18 18 19 18 18 18 19 21 22 23 24 25 26 26 27 28 28 27 26 26 27 28 29 31 32 34 35 35 36 36 37 36 36 36 36 35 34 33
9 11 13 15 15 16 16 16 16 16 15 14 15 16 17 18 19 19 20 21 21 22 22 23 22 21 22 24 26 27 29 30 31 32 33 34 34 34 34 34 33 33 32 32
12 14 15 15 15 16 15 16 17 16 14 13 13 13 13 14 15 15 15 16 17 17 18 18 17 16 16 17 19 22 24 24 25 27 28 30 30 30 31 31 31 31 31 31
14 15 16 16 16 16 16 17 17 16 14 12 12 12 12 12 12 13 13 12 13 13 13 12 11 11 12 13 14 16 18 20 21 22 23 23 25 26 26 26 26 28 28 28
15 15 15 15 15 16 16 17 16 16 14 12 12 12 12 12 14 14 14 13 12 11 10 10 10 10 10 10 11 11 12 13 14 15 16 17 18 20 21 22 22 22 23 23
17 16 16 15 16 16 17 17 17 16 15 14 13 14 13 14 15 15 15 15 14 14 13 12 11 9 8 6 5 5 5 6 7 8 10 11 12 13 14 15 15 16 17 18
18 18 16 16 16 17 17 17 17 17 16 16 16 16 16 16 16 16 17 17 17 17 17 15 14 13 10 8 7 6 5 4 4 5 5 6 6 7 7 8 9 9 10 10
19 19 18 17 16 16 17 17 17 17 17 17 18 18 18 18 18 17 18 18 18 19 18 17 16 15 14 11 10 9 7 7 6 6 6 5 4 3 4 5 5 6 7 7
20 19 19 18 17 16 17 17 17 17 17 17 18 18 18 18 18 18 19 19 19 18 17 16 15 15 15 14 13 12 11 9 9 8 8 8 7 6 5 4 3 4 5 6
19 20 19 18 17 16 16 17 17 17 16 17 17 18 18 18 18 18 18 19 19 19 18 18 17 17 16 15 15 14 13 12 11 9 8 8 7 6 5 5 5 5 6 7
18 19 19 18 17 17 17 17 17 17 16 16 16 16 17 18 18 18 18 18 19 18 19 19 18 18 18 17 17 16 15 14 13 12 11 10 9 7 7 7 7 6 6 7
17 18 18 18 18 18 18 17 17 17 16 15 15 15 16 16 17 17 18 19 19 19 19 18 18 18 18 17 17 16 16 16 15 15 14 13 12 11 9 8 8 8 8 8
17 18 18 18 19 19 18 17 16 16 15 15 14 15 15 15 16 17 18 19 19 20 19 19 19 19 19 19 19 18 18 17 17 16 16 15 14 13 12 10 10 9 9 10
15 17 17 18 18 18 18 17 15 15 15 14 14 14 14 15 16 17 17 18 19 20 20 20 20 20 20 20 20 20 19 19 18 18 17 16 16 15 14 13 12 11 11 11
13 15 16 16 17 18 18 17 16 15 14 13 14 14 14 15 16 16 17 18 19 19 20 20 21 21 21 20 20 20 20 20 20 19 18 18 17 16 16 15 14 13 12 12
10 12 13 15 16 16 17 17 16 15 14 13 13 13 14 14 15 15 16 17 18 18 19 19 20 20 20 20 20 20 20 20 20 20 19 18 18 18 17 17 16 15 14 14
8 10 12 13 15 15 16 16 16 16 14 12 12 12 13 13 13 14 14 15 15 16 17 18 18 18 19 19 20 20 20 20 20 20 19 19 19 19 19 18 18 17 16 16
8 8 10 11 12 13 14 15 15 15 15 13 12 11 11 11 12 12 12 13 13 14 15 15 16 16 17 18 19 19 20 20 21 20 20 20 19 19 19 19 19 18 18 17
7 7 9 10 10 11 12 12 13 14 14 13 12 11 10 9 10 10 10 11 11 12 13 13 14 15 16 16 17 18 19 19 20 20 20 20 21 20 20 19 19 19 18 18
7 7 8 9 9 9 9 10 11 12 12 13 12 11 10 9 8 9 9 9 9 10 11 12 12 13 14 15 16 16 17 18 19 19 20 20 20 21 21 20 20 19 19 18
Wind_Direction
262 271 275 277 279 279 280 281 283 284 283 283 282 281 280 280 278 277 277 277 277 275 273 271 268 268 267 267 266 266 266 265 266 266 267 267 268 268 270 272 273 272 269 267
267 272 279 283 285 286 286 286 286 285 284 283 282 281 281 280 280 280 278 277 277 277 274 272 270 268 266 265 264 264 264 264 264 265 265 266 267 267 269 271 271 271 270 266
276 284 288 290 292 293 293 291 289 288 287 285 284 283 282 280 280 279 278 278 279 278 275 273 272 269 266 264 263 262 262 263 263 263 264 264 264 266 266 268 268 268 269 267
289 294 297 299 301 302 299 297 295 292 288 284 283 281 281 280 279 278 278 277 277 277 275 273 271 269 266 264 262 260 260 261 262 262 262 262 262 264 264 266 266 267 268 267
304 306 309 311 310 308 304 302 299 295 291 286 284 281 280 280 279 279 278 277 276 276 276 274 273 271 268 264 260 258 258 259 261 261 261 261 261 262 264 265 266 268 268 268
326 325 324 320 317 315 313 310 307 303 299 293 289 287 286 285 283 280 281 282 282 281 281 278 276 273 267 264 261 259 258 258 258 260 261 262 262 262 263 264 265 266 267 268
340 334 330 327 326 325 323 321 318 315 311 304 300 295 294 295 294 291 289 289 289 287 285 280 279 275 270 267 263 260 259 260 260 260 261 262 262 262 263 263 265 266 267 268
356 349 344 341 339 337 337 337 336 332 327 320 317 310 305 307 309 304 301 299 296 293 286 284 283 280 273 268 266 264 263 264 264 262 262 263 263 263 263 264 266 267 267 268
11 5 358 354 351 350 351 350 350 348 344 339 340 337 327 324 322 321 315 313 312 308 300 297 292 290 282 274 271 268 266 267 267 266 265 265 265 265 266 266 266 266 266 267
14 7 2 358 358 359 360 360 2 2 0 356 356 355 352 352 350 345 346 342 336 329 321 314 308 306 296 286 282 275 269 269 269 268 266 266 266 265 266 266 266 265 264 262
17 10 6 4 6 8 9 11 12 13 13 15 13 13 11 13 12 13 13 13 11 8 359 345 334 326 316 307 297 288 281 277 273 271 268 266 265 263 263 264 265 264 262 262
20 15 11 10 14 18 19 19 20 22 24 27 25 27 25 24 27 24 23 24 25 25 22 16 7 358 350 345 336 322 313 297 288 284 277 276 274 265 263 263 265 266 262 259
24 20 15 16 20 25 25 27 29 32 34 36 38 39 38 38 37 35 35 36 37 40 38 39 38 36 35 37 35 25 15 0 338 312 300 293 287 270 263 267 268 268 264 260
26 24 21 22 25 28 29 30 32 35 37 38 39 42 44 43 45 44 42 42 43 44 44 45 45 42 43 45 46 42 37 32 27 25 22 10 352 322 292 282 275 268 268 263
28 26 24 26 29 31 32 33 35 39 40 41 42 45 46 45 46 45 44 43 43 42 42 42 42 41 40 42 43 43 43 42 40 38 32 25 21 18 9 348 313 293 279 271
30 29 28 29 31 32 33 35 37 39 40 41 42 45 47 47 47 45 44 44 46 46 46 46 46 45 45 44 45 45 44 42 39 33 25 19 15 8 2 350 337 317 300 289
31 31 32 33 34 34 36 36 38 39 40 42 42 45 46 45 45 44 45 46 47 47 46 47 47 47 47 47 46 44 42 39 37 34 30 25 20 13 4 354 348 337 322 308
31 32 34 36 35 36 36 38 39 40 42 45 45 46 47 46 44 44 45 46 47 47 47 46 46 47 47 46 45 45 43 42 40 38 35 31 25 20 13 5 356 346 335 324
31 32 34 35 35 36 36 38 40 41 43 46 46 46 47 46 45 46 46 47 48 48 48 48 49 49 49 48 47 47 46 44 42 39 36 33 30 26 22 14 4 354 346 336
31 32 32 33 33 34 35 37 38 40 46 47 47 48 49 48 48 49 49 49 49 49 50 50 50 50 48 48 47 47 45 43 42 39 36 34 31 28 24 18 11 4 357 349
28 30 31 32 32 34 34 36 37 40 43 47 48 48 48 48 49 50 50 50 50 51 52 52 51 50 49 48 47 45 43 41 40 38 36 34 32 29 25 22 18 13 8 2
23 26 29 31 32 32 32 34 35 38 41 46 47 47 47 48 48 50 50 50 51 51 51 51 50 49 47 46 44 43 40 39 38 37 36 34 33 30 28 25 22 19 15 12
14 18 23 26 29 30 31 31 33 36 39 42 44 45 46 47 48 48 48 48 49 48 48 48 47 46 44 42 41 39 38 37 37 36 35 33 33 31 30 28 26 25 22 20
4 9 14 18 22 26 28 29 31 33 35 37 38 40 42 44 45 46 45 45 45 44 43 43 42 41 39 38 37 36 36 36 36 35 33 32 32 31 30 29 29 29 29 28
349 356 3 8 13 18 21 24 27 30 32 34 35 35 37 38 38 39 41 40 40 38 37 36 36 35 35 34 34 34 33 33 33 33 33 32 32 32 31 30 31 32 32 32
336 343 349 353 359 4 8 14 20 23 25 28 30 30 30 31 31 31 32 32 32 31 30 30 28 28 29 30 30 30 31 31 31 31 32 31 31 31 32 33 33 33 33 33
Height
5902 5903 5901 5900 5899 5898 5896 5894 5892 5889 5887 5884 5882 5880 5878 5876 5874 5872 5870 5869 5868 5868 5867 5866 5866 5866 5865 5865 5865 5866 5867 5868 5869 5870 5870 5871 5872 5871 5872 5872 5871 5870 5870 5870
5900 5899 5897 5896 5894 5892 5890 5888 5886 5883 5880 5877 5874 5872 5870 5867 5865 5863 5861 5859 5858 5857 5857 5856 5855 5855 5855 5855 5855 5855 5856 5858 5859 5860 5861 5862 5863 5863 5863 5864 5863 5862 5862 5864
5897 5896 5893 5892 5889 5887 5884 5883 5880 5878 5874 5870 5866 5863 5861 5858 5855 5853 5851 5849 5848 5847 5846 5845 5845 5844 5844 5845 5845 5845 5846 5847 5849 5850 5851 5852 5853 5854 5855 5855 5855 5854 5854 5855
5894 5891 5889 5887 5885 5882 5880 5877 5874 5871 5867 5864 5860 5856 5853 5849 5847 5844 5841 5839 5838 5836 5835 5835 5834 5834 5833 5834 5834 5835 5836 5837 5838 5840 5841 5842 5844 5845 5846 5846 5846 5846 5846 5847
5891 5888 5886 5883 5881 5878 5875 5871 5868 5864 5860 5856 5852 5848 5845 5841 5838 5835 5832 5830 5828 5827 5825 5824 5824 5823 5823 5823 5824 5825 5826 5827 5828 5830 5831 5833 5834 5836 5837 5837 5837 5837 5838 5839
5888 5885 5883 5880 5876 5873 5869 5866 5861 5858 5853 5849 5845 5841 5836 5832 5829 5827 5824 5822 5819 5818 5816 5814 5814 5813 5814 5814 5815 5816 5817 5818 5819 5821 5822 5823 5825 5826 5827 5828 5829 5829 5830 5831
5886 5884 5880 5876 5872 5869 5865 5861 5857 5851 5847 5843 5839 5834 5830 5826 5822 5819 5817 5815 5812 5810 5808 5807 5806 5805 5805 5805 5806 5807 5809 5810 5811 5812 5813 5814 5815 5817 5818 5819 5820 5821 5822 5822
5885 5882 5878 5873 5870 5865 5861 5857 5853 5848 5842 5838 5834 5830 5826 5822 5818 5814 5811 5809 5807 5804 5802 5800 5799 5798 5797 5798 5798 5800 5801 5802 5803 5804 5805 5806 5807 5808 5809 5810 5811 5812 5813 5814
5882 5879 5875 5871 5867 5863 5858 5853 5849 5844 5839 5835 5832 5827 5823 5819 5815 5811 5808 5805 5802 5799 5797 5796 5794 5793 5792 5792 5793 5793 5794 5795 5796 5797 5797 5798 5799 5800 5801 5802 5803 5804 5805 5806
5881 5877 5874 5870 5866 5861 5857 5851 5847 5842 5837 5834 5830 5826 5823 5819 5815 5811 5807 5804 5800 5797 5795 5793 5791 5790 5789 5789 5789 5789 5789 5790 5790 5791 5791 5792 5793 5793 5794 5795 5796 5797 5797 5798
5880 5877 5873 5869 5864 5860 5856 5851 5846 5841 5837 5834 5830 5829 5823 5819 5815 5811 5808 5804 5801 5797 5795 5792 5790 5789 5787 5786 5786 5786 5786 5786 5786 5786 5786 5787 5787 5788 5788 5789 5789 5790 5791 5791
5880 5877 5872 5869 5864 5860 5855 5851 5846 5842 5838 5834 5831 5831 5823 5820 5817 5813 5810 5806 5802 5799 5796 5793 5791 5789 5787 5786 5785 5785 5784 5784 5784 5784 5784 5784 5784 5784 5784 5784 5784 5785 5785 5786
5881 5877 5873 5869 5866 5861 5856 5852 5847 5844 5840 5836 5833 5832 5825 5822 5819 5815 5812 5808 5805 5802 5799 5796 5794 5791 5789 5788 5787 5786 5785 5784 5784 5783 5782 5782 5782 5781 5781 5781 5781 5782 5782 5782
5881 5877 5874 5871 5866 5861 5857 5853 5849 5846 5842 5838 5835 5831 5828 5825 5822 5818 5815 5812 5808 5806 5803 5800 5797 5795 5793 5791 5789 5788 5787 5786 5785 5784 5783 5782 5781 5781 5780 5780 5780 5780 5780 5780
5882 5878 5874 5870 5866 5862 5858 5855 5851 5848 5844 5841 5838 5834 5832 5828 5825 5822 5819 5816 5812 5810 5807 5804 5801 5799 5796 5794 5792 5790 5789 5787 5787 5785 5784 5783 5782 5781 5780 5779 5779 5779 5778 5778
5883 5879 5875 5871 5867 5864 5860 5857 5853 5850 5847 5844 5841 5838 5835 5832 5829 5826 5823 5820 5817 5814 5811 5808 5805 5802 5800 5797 5795 5793 5791 5790 5789 5787 5786 5784 5783 5782 5781 5780 5779 5778 5777 5777
5884 5881 5877 5873 5870 5866 5863 5859 5855 5852 5849 5846 5844 5842 5838 5835 5833 5830 5827 5824 5821 5818 5815 5812 5809 5806 5804 5801 5799 5796 5794 5792 5791 5789 5787 5785 5784 5782 5780 5779 5778 5777 5776 5775
5886 5882 5879 5875 5872 5868 5867 5861 5857 5854 5852 5849 5846 5844 5841 5839 5837 5834 5831 5828 5824 5821 5818 5815 5812 5810 5807 5805 5802 5800 5797 5795 5793 5791 5789 5787 5785 5783 5781 5779 5778 5776 5775 5773
5887 5884 5880 5877 5873 5870 5867 5863 5859 5857 5854 5851 5849 5847 5844 5842 5840 5837 5834 5831 5828 5825 5822 5819 5816 5814 5811 5808 5806 5803 5801 5798 5796 5793 5791 5789 5786 5784 5782 5780 5778 5776 5774 5772
5889 5885 5883 5879 5875 5872 5870 5865 5862 5860 5857 5854 5852 5849 5847 5845 5843 5841 5838 5835 5832 5829 5826 5823 5820 5817 5815 5812 5809 5807 5804 5801 5799 5796 5793 5791 5788 5785 5783 5781 5778 5776 5774 5771
5890 5887 5884 5881 5878 5874 5871 5867 5864 5862 5861 5857 5854 5852 5850 5847 5846 5844 5840 5838 5835 5832 5830 5827 5824 5822 5819 5816 5813 5811 5808 5805 5802 5799 5796 5793 5790 5787 5784 5781 5779 5776 5773 5771
5891 5888 5885 5882 5879 5878 5873 5869 5867 5865 5861 5858 5856 5854 5852 5850 5848 5846 5843 5841 5839 5836 5834 5831 5828 5826 5823 5821 5818 5815 5811 5808 5805 5802 5799 5795 5792 5789 5786 5783 5780 5777 5773 5770
5891 5889 5886 5884 5883 5878 5875 5872 5869 5866 5863 5860 5858 5856 5854 5852 5850 5848 5846 5844 5842 5840 5837 5835 5832 5830 5827 5824 5821 5818 5815 5812 5808 5805 5802 5798 5795 5792 5788 5785 5781 5778 5775 5771
5890 5888 5886 5884 5881 5879 5876 5873 5870 5867 5864 5862 5860 5858 5856 5854 5852 5850 5849 5847 5845 5842 5840 5838 5836 5833 5831 5828 5825 5822 5818 5815 5811 5808 5805 5801 5798 5794 5791 5787 5784 5780 5777 5773
5890 5888 5886 5883 5882 5879 5877 5874 5872 5869 5866 5864 5861 5859 5857 5856 5854 5852 5850 5849 5847 5845 5843 5841 5838 5836 5833 5831 5828 5825 5822 5818 5815 5811 5808 5804 5801 5797 5794 5790 5786 5783 5779 5776
5888 5887 5885 5883 5881 5880 5878 5875 5873 5870 5868 5865 5863 5861 5859 5857 5855 5853 5852 5850 5848 5847 5845 5843 5840 5838 5836 5833 5830 5827 5824 5821 5818 5814 5811 5808 5804 5800 5797 5793 5789 5786 5782 5779